THY540 FZAA-LTFM

Flight info

Callsign THY540
Flight time N/A
Altitude 34000
Route BZ4A BZ UA403 CF/N0487F360 UA403 DINTA/N0481F370 UR778 TONBA R778 DITAR M720 FYM W613 ALPID DCT GESON/N0479F380 DCT LAGVI Q777 RASDA M855 MAROS DCT TOMBI UM855 LEMDA UA16 KFK UM855 SISPI
Aircraft B77W/H-SDE1E2E3FGHIJ2J3J4J5M1RWXY/LB1D1

Departure

Time 2026-04-18 11:26
Airport Ndjili International Airport (FZAA)

Arrival

Time N/A
Airport İstanbul Airport (LTFM)
Time Latitude Longitude Altitude Speed Heading
2026-04-18 11:21 -4.38666 15.44510 1024 ft 6 kts 323°
2026-04-18 11:21 -4.38633 15.44486 1024 ft 6 kts 326°
2026-04-18 11:21 -4.38594 15.44475 1023 ft 6 kts
2026-04-18 11:22 -4.38556 15.44494 1025 ft 6 kts 37°
2026-04-18 11:22 -4.38523 15.44528 1026 ft 10 kts 50°
2026-04-18 11:22 -4.38479 15.44598 1027 ft 12 kts 59°
2026-04-18 11:22 -4.38435 15.44668 1025 ft 12 kts 56°
2026-04-18 11:23 -4.38389 15.44738 1025 ft 12 kts 56°
2026-04-18 11:23 -4.38342 15.44808 1026 ft 12 kts 56°
2026-04-18 11:23 -4.38294 15.44883 1026 ft 15 kts 58°
2026-04-18 11:23 -4.38238 15.44970 1024 ft 15 kts 57°
2026-04-18 11:24 -4.38183 15.45056 1028 ft 15 kts 57°
2026-04-18 11:24 -4.38137 15.45148 1026 ft 15 kts 80°
2026-04-18 11:24 -4.38119 15.45184 1026 ft 1 kts 360°
2026-04-18 11:24 -4.38110 15.45177 1027 ft 2 kts 313°
2026-04-18 11:25 -4.38114 15.45160 1026 ft 4 kts 239°
2026-04-18 11:25 -4.38119 15.45153 1027 ft 5 kts 237°
2026-04-18 11:25 -4.38280 15.44904 1026 ft 80 kts 237°
2026-04-18 11:25 -4.38713 15.44237 1021 ft 145 kts 237°
2026-04-18 11:26 -4.39356 15.43244 1094 ft 186 kts 237°
2026-04-18 11:26 -4.40070 15.42119 1534 ft 195 kts 238°
2026-04-18 11:26 -4.40804 15.40976 2237 ft 192 kts 237°
2026-04-18 11:26 -4.41538 15.39858 2837 ft 196 kts 237°
2026-04-18 11:27 -4.42321 15.38662 3057 ft 219 kts 237°
2026-04-18 11:27 -4.43207 15.37306 3261 ft 245 kts 237°
2026-04-18 11:27 -4.44160 15.35847 3831 ft 254 kts 237°
2026-04-18 11:27 -4.45139 15.34345 4521 ft 260 kts 237°
2026-04-18 11:28 -4.46137 15.32815 5291 ft 262 kts 237°
2026-04-18 11:28 -4.47136 15.31281 6057 ft 265 kts 237°
2026-04-18 11:28 -4.48152 15.29722 6782 ft 268 kts 237°
2026-04-18 11:28 -4.48939 15.28071 7337 ft 271 kts 261°
2026-04-18 11:29 -4.48734 15.26202 7950 ft 274 kts 296°
2026-04-18 11:29 -4.47520 15.24752 8640 ft 275 kts 327°
2026-04-18 11:29 -4.45771 15.23970 9235 ft 276 kts 339°
2026-04-18 11:29 -4.43940 15.23325 9656 ft 282 kts 350°
2026-04-18 11:30 -4.41993 15.23366 10187 ft 283 kts
2026-04-18 11:30 -4.40001 15.23659 10410 ft 304 kts
2026-04-18 11:30 -4.37816 15.23905 10596 ft 326 kts
2026-04-18 11:30 -4.35473 15.24107 10773 ft 348 kts
2026-04-18 11:31 -4.32979 15.24278 10942 ft 369 kts
2026-04-18 11:31 -4.30370 15.24427 11349 ft 382 kts
2026-04-18 11:31 -4.27719 15.24566 11899 ft 390 kts
2026-04-18 11:31 -4.24979 15.24708 12578 ft 395 kts
2026-04-18 11:32 -4.22228 15.24892 13312 ft 398 kts
2026-04-18 11:32 -4.19450 15.25116 13999 ft 401 kts
2026-04-18 11:32 -4.16674 15.25353 14608 ft 406 kts
2026-04-18 11:32 -4.13837 15.25597 15185 ft 411 kts
2026-04-18 11:33 -4.10973 15.25841 15748 ft 415 kts
2026-04-18 11:33 -4.08077 15.26085 16291 ft 419 kts
2026-04-18 11:33 -4.05156 15.26327 16806 ft 422 kts
2026-04-18 11:33 -4.02216 15.26569 17317 ft 425 kts
2026-04-18 11:34 -3.99251 15.26813 17800 ft 428 kts
2026-04-18 11:34 -3.96271 15.27057 18243 ft 432 kts
2026-04-18 11:34 -3.93295 15.27300 18654 ft 435 kts
2026-04-18 11:34 -3.90267 15.27547 19050 ft 439 kts
2026-04-18 11:35 -3.87214 15.27797 19450 ft 441 kts
2026-04-18 11:35 -3.84147 15.28047 19842 ft 443 kts
2026-04-18 11:35 -3.81059 15.28300 20196 ft 446 kts
2026-04-18 11:35 -3.77937 15.28555 20524 ft 449 kts
2026-04-18 11:36 -3.74849 15.28807 20841 ft 451 kts
2026-04-18 11:36 -3.71707 15.29063 21181 ft 453 kts
2026-04-18 11:36 -3.68551 15.29321 21509 ft 455 kts
2026-04-18 11:36 -3.65374 15.29580 21811 ft 458 kts
2026-04-18 11:37 -3.62188 15.29841 22106 ft 460 kts
2026-04-18 11:37 -3.59021 15.30100 22407 ft 462 kts
2026-04-18 11:37 -3.55801 15.30363 22695 ft 464 kts
2026-04-18 11:37 -3.52570 15.30627 22960 ft 466 kts
2026-04-18 11:38 -3.49324 15.30892 23227 ft 468 kts
2026-04-18 11:38 -3.46070 15.31158 23503 ft 470 kts
2026-04-18 11:38 -3.42852 15.31420 23762 ft 471 kts
2026-04-18 11:38 -3.39572 15.31688 24000 ft 473 kts
2026-04-18 11:39 -3.36271 15.31958 24228 ft 476 kts
2026-04-18 11:39 -3.32961 15.32228 24480 ft 477 kts
2026-04-18 11:39 -3.29651 15.32498 24727 ft 478 kts
2026-04-18 11:39 -3.26321 15.32769 24948 ft 480 kts
2026-04-18 11:40 -3.22986 15.33041 25154 ft 482 kts
2026-04-18 11:40 -3.19657 15.33313 25892 ft 475 kts
2026-04-18 11:40 -3.16366 15.33582 26542 ft 476 kts
2026-04-18 11:40 -3.13041 15.33853 26600 ft 484 kts
2026-04-18 11:41 -3.09708 15.34125 26639 ft 489 kts
2026-04-18 11:41 -3.06307 15.34403 26735 ft 492 kts
2026-04-18 11:41 -3.02890 15.34681 26936 ft 492 kts
2026-04-18 11:41 -2.99475 15.34960 27164 ft 492 kts
2026-04-18 11:42 -2.96059 15.35239 27375 ft 493 kts
2026-04-18 11:42 -2.93793 15.35424 27496 ft 493 kts
2026-04-18 11:42 -2.90357 15.35704 27671 ft 494 kts
2026-04-18 11:42 -2.86923 15.35984 27845 ft 495 kts
2026-04-18 11:43 -2.83484 15.36264 28037 ft 496 kts
2026-04-18 11:43 -2.80043 15.36544 28228 ft 496 kts
2026-04-18 11:43 -2.76585 15.36826 28404 ft 497 kts
2026-04-18 11:43 -2.73174 15.37105 28577 ft 497 kts
2026-04-18 11:44 -2.69715 15.37387 28749 ft 498 kts
2026-04-18 11:44 -2.66257 15.37669 28922 ft 498 kts
2026-04-18 11:44 -2.62792 15.37952 29096 ft 498 kts
2026-04-18 11:44 -2.59330 15.38234 29269 ft 499 kts
2026-04-18 11:45 -2.55862 15.38517 29432 ft 499 kts
2026-04-18 11:45 -2.52442 15.38795 29594 ft 500 kts
2026-04-18 11:45 -2.48969 15.39078 29759 ft 500 kts
2026-04-18 11:45 -2.45499 15.39361 29923 ft 500 kts
2026-04-18 11:46 -2.42027 15.39644 30084 ft 500 kts
2026-04-18 11:46 -2.38545 15.39928 30244 ft 501 kts
2026-04-18 11:46 -2.35075 15.40211 30396 ft 501 kts
2026-04-18 11:46 -2.31598 15.40494 30517 ft 502 kts
2026-04-18 11:47 -2.24641 15.41061 30712 ft 504 kts
2026-04-18 11:47 -2.17609 15.41634 30928 ft 506 kts
2026-04-18 11:48 -2.14126 15.41918 31477 ft 499 kts
2026-04-18 11:48 -2.10693 15.42197 32169 ft 491 kts
2026-04-18 11:48 -2.07305 15.42474 32811 ft 485 kts
2026-04-18 11:48 -2.03958 15.42746 33331 ft 481 kts
2026-04-18 11:49 -2.00623 15.43018 33732 ft 480 kts
2026-04-18 11:49 -1.97295 15.43289 34060 ft 480 kts
2026-04-18 11:49 -1.93961 15.43560 34370 ft 480 kts
2026-04-18 11:49 -1.90633 15.43831 34679 ft 480 kts
2026-04-18 11:50 -1.87345 15.44099 34955 ft 481 kts
2026-04-18 11:50 -1.83989 15.44373 34979 ft 484 kts
2026-04-18 11:50 -1.77259 15.44905 34994 ft 481 kts
2026-04-18 11:51 -1.70644 15.45385 35003 ft 477 kts
2026-04-18 11:51 -1.63992 15.45863 35009 ft 477 kts
2026-04-18 11:52 -1.57393 15.46344 35001 ft 478 kts
2026-04-18 11:52 -1.50743 15.46832 35004 ft 479 kts
2026-04-18 11:53 -1.44088 15.47321 34998 ft 479 kts
2026-04-18 11:53 -1.37420 15.47810 35005 ft 479 kts
2026-04-18 11:54 -1.30803 15.48295 35005 ft 480 kts
2026-04-18 11:54 -1.24133 15.48784 34994 ft 480 kts
2026-04-18 11:55 -1.17503 15.49270 35000 ft 479 kts
2026-04-18 11:55 -1.10844 15.49764 35003 ft 479 kts
2026-04-18 11:56 -1.04180 15.50265 35003 ft 479 kts
2026-04-18 11:56 -0.97559 15.50762 34996 ft 478 kts
2026-04-18 11:57 -0.90920 15.51259 34997 ft 478 kts
2026-04-18 11:57 -0.84277 15.51756 34996 ft 478 kts
2026-04-18 11:58 -0.77681 15.52250 34996 ft 478 kts
2026-04-18 11:58 -0.71036 15.52747 35007 ft 478 kts
2026-04-18 11:59 -0.64395 15.53244 35002 ft 478 kts
2026-04-18 11:59 -0.57795 15.53739 35000 ft 478 kts
2026-04-18 12:00 -0.51151 15.54236 34996 ft 478 kts
2026-04-18 12:00 -0.44506 15.54733 35005 ft 478 kts
2026-04-18 12:01 -0.34531 15.55480 34997 ft 478 kts
2026-04-18 12:02 -0.27923 15.55974 34996 ft 478 kts
2026-04-18 12:02 -0.21277 15.56472 34994 ft 479 kts
2026-04-18 12:03 -0.14615 15.56971 34996 ft 479 kts
2026-04-18 12:03 -0.08011 15.57465 34996 ft 478 kts
2026-04-18 12:04 -0.01356 15.57960 35000 ft 478 kts
2026-04-18 12:04 0.05308 15.58310 35001 ft 478 kts
2026-04-18 12:05 0.11915 15.58593 35005 ft 478 kts
2026-04-18 12:05 0.18581 15.58895 34996 ft 478 kts
2026-04-18 12:06 0.25244 15.59213 35000 ft 478 kts
2026-04-18 12:06 0.31892 15.59534 34997 ft 478 kts
2026-04-18 12:07 0.38509 15.59851 35006 ft 478 kts
2026-04-18 12:07 0.45155 15.60170 34995 ft 478 kts
2026-04-18 12:08 0.51821 15.60490 34996 ft 478 kts
2026-04-18 12:08 0.58481 15.60809 34996 ft 478 kts
2026-04-18 12:09 0.65109 15.61128 34999 ft 478 kts
2026-04-18 12:09 0.71770 15.61448 35001 ft 479 kts
2026-04-18 12:10 0.78391 15.61766 35005 ft 479 kts
2026-04-18 12:10 0.85053 15.62086 35005 ft 479 kts
2026-04-18 12:11 0.91713 15.62406 34996 ft 479 kts
2026-04-18 12:11 0.98377 15.62727 34997 ft 479 kts
2026-04-18 12:12 1.05008 15.63046 35002 ft 479 kts
2026-04-18 12:12 1.11672 15.63366 34996 ft 479 kts
2026-04-18 12:13 1.18338 15.63686 34997 ft 479 kts
2026-04-18 12:13 1.25001 15.64007 35001 ft 479 kts
2026-04-18 12:14 1.31674 15.64328 35004 ft 479 kts
2026-04-18 12:14 1.38328 15.64648 35004 ft 479 kts
2026-04-18 12:15 1.44943 15.64966 34997 ft 479 kts
2026-04-18 12:15 1.51618 15.65287 35000 ft 479 kts
2026-04-18 12:16 1.58289 15.65608 34996 ft 479 kts
2026-04-18 12:16 1.64910 15.65926 35006 ft 479 kts
2026-04-18 12:17 1.71568 15.66246 34995 ft 479 kts
2026-04-18 12:17 1.78244 15.66568 34996 ft 479 kts
2026-04-18 12:18 1.84899 15.66888 34996 ft 479 kts
2026-04-18 12:18 1.91523 15.67206 34999 ft 479 kts
2026-04-18 12:19 1.98189 15.67527 34998 ft 479 kts
2026-04-18 12:19 2.04829 15.67847 34995 ft 479 kts
2026-04-18 12:20 2.11499 15.68168 34995 ft 479 kts
2026-04-18 12:20 2.18165 15.68488 34996 ft 479 kts
2026-04-18 12:21 2.24836 15.68809 34997 ft 480 kts
2026-04-18 12:21 2.31482 15.69129 35005 ft 480 kts
2026-04-18 12:22 2.38160 15.69451 34995 ft 480 kts
2026-04-18 12:22 2.44837 15.69772 35004 ft 479 kts
2026-04-18 12:23 2.51502 15.70093 35005 ft 479 kts
2026-04-18 12:23 2.58163 15.70414 34997 ft 479 kts
2026-04-18 12:24 2.64797 15.70734 35007 ft 479 kts
2026-04-18 12:24 2.71470 15.71055 35001 ft 479 kts
2026-04-18 12:25 2.78146 15.71377 35006 ft 479 kts
2026-04-18 12:25 2.84781 15.71697 34996 ft 479 kts
2026-04-18 12:26 2.91452 15.72020 35005 ft 480 kts
2026-04-18 12:26 2.98122 15.72344 34999 ft 480 kts
2026-04-18 12:27 3.04768 15.72666 35003 ft 480 kts
2026-04-18 12:27 3.11459 15.72990 35008 ft 480 kts
2026-04-18 12:28 3.18101 15.73312 34996 ft 480 kts
2026-04-18 12:28 3.24784 15.73636 35003 ft 480 kts
2026-04-18 12:29 3.31482 15.73961 34999 ft 480 kts
2026-04-18 12:29 3.38130 15.74284 35006 ft 480 kts
2026-04-18 12:30 3.44819 15.74608 35005 ft 480 kts
2026-04-18 12:30 3.51469 15.74931 35000 ft 480 kts
2026-04-18 12:31 3.57033 15.75201 35006 ft 480 kts